Location: El Álamo
(40.2307°N, 3.9945°W)
Time: 03:31:24
(UTC+00:00)

MetOp-B - Pass Details

Date: 19 May 2025
Orbit: 820 x 821 km, 98.6° (Epoch: 23 June)

Event Time Altitude Azimuth Distance (km) Brightness Sun altitude
Exits shadow 20:20:56 10° 145° (SE) 2,430 6.0 -9.3°
Reaches altitude 10° 20:20:59 10° 145° (SE) 2,410 6.0 -9.3°
Maximum altitude 20:26:07 50° 71° (ENE) 1,035 4.5 -10.1°
Drops below altitude 10° 20:31:17 10° 357° (N) 2,425 7.2 -10.8°
Sets 20:33:42 0° 353° (N) 3,361 8.1 -11.2°
